Location: Peebles
(55.6412°N, 3.1714°W)
Time: 09:29:46
(UTC+01:00)

H-2A R/B - Pass Details

Date: 26 September 2021
Orbit: 576 x 655 km, 98.5° (Epoch: 20 October)

Event Time Altitude Azimuth Distance (km) Brightness Sun altitude
Rises 20:16:38 0° 16° (NNE) 2,876 5.5 -11.5°
Reaches altitude 10° 20:18:50 10° 18° (NNE) 1,955 4.6 -11.8°
Maximum altitude 20:23:05 81° 105° (ESE) 606 1.9 -12.3°
Drops below altitude 10° 20:27:12 10° 194° (SSW) 1,903 4.5 -12.9°
Sets 20:29:20 0° 195° (SSW) 2,791 5.4 -13.2°
